KLM39J EHAM-LDSP

Flight info

Callsign KLM39J
Flight time 1h 48m
Altitude 39000
Route EDUPO Z739 MISGO DCT ASBON DCT TUSUK DCT UTABA DCT BEMKI DCT ELMEM DCT DIRAB DCT VESAL DCT PEVAL DCT PUL DCT LOS DCT MINTU DCT SAL
Aircraft B739/M-SDE2E3FGHIRWXY/LB1

Departure

Time 2026-04-30 08:27
Airport Amsterdam Airport Schiphol (EHAM)

Arrival

Time 2026-04-30 10:15
Airport Split Saint Jerome Airport (LDSP)
Time Latitude Longitude Altitude Speed Heading
2026-04-30 07:55 52.30792 4.77229 -2 ft 0 kts 183°
2026-04-30 08:16 52.30802 4.77230 -2 ft 4 kts 188°
2026-04-30 08:16 52.30828 4.77240 -2 ft 4 kts 187°
2026-04-30 08:16 52.30837 4.77235 -2 ft 4 kts 125°
2026-04-30 08:16 52.30847 4.77202 -2 ft 1 kts 114°
2026-04-30 08:17 52.30848 4.77202 -2 ft 0 kts 114°
2026-04-30 08:19 52.30847 4.77205 -2 ft 1 kts 113°
2026-04-30 08:19 52.30843 4.77243 -2 ft 6 kts 94°
2026-04-30 08:19 52.30839 4.77337 -2 ft 9 kts 93°
2026-04-30 08:19 52.30836 4.77439 -2 ft 9 kts 92°
2026-04-30 08:20 52.30835 4.77449 -2 ft 9 kts 93°
2026-04-30 08:20 52.30835 4.77478 -2 ft 9 kts 93°
2026-04-30 08:20 52.30835 4.77569 -2 ft 8 kts 79°
2026-04-30 08:21 52.30857 4.77604 -2 ft 8 kts 19°
2026-04-30 08:21 52.30918 4.77612 -2 ft 11 kts
2026-04-30 08:22 52.31010 4.77621 -2 ft 16 kts
2026-04-30 08:22 52.31121 4.77632 -2 ft 16 kts
2026-04-30 08:22 52.31228 4.77640 -2 ft 15 kts
2026-04-30 08:22 52.31332 4.77651 -2 ft 15 kts
2026-04-30 08:23 52.31431 4.77645 -2 ft 14 kts 346°
2026-04-30 08:23 52.31506 4.77565 -2 ft 11 kts 316°
2026-04-30 08:23 52.31567 4.77498 -2 ft 11 kts 349°
2026-04-30 08:23 52.31640 4.77512 -2 ft 11 kts 19°
2026-04-30 08:24 52.31698 4.77603 -2 ft 12 kts 55°
2026-04-30 08:24 52.31761 4.77687 -3 ft 12 kts 13°
2026-04-30 08:24 52.31846 4.77697 -3 ft 12 kts
2026-04-30 08:24 52.31928 4.77706 -2 ft 12 kts
2026-04-30 08:25 52.31987 4.77713 -2 ft 7 kts
2026-04-30 08:25 52.32029 4.77758 -2 ft 7 kts 41°
2026-04-30 08:25 52.32071 4.77820 -2 ft 10 kts 43°
2026-04-30 08:25 52.32117 4.77907 -2 ft 10 kts 68°
2026-04-30 08:26 52.32121 4.77994 -2 ft 5 kts 113°
2026-04-30 08:26 52.32092 4.78012 -2 ft 5 kts 181°
2026-04-30 08:26 52.32032 4.78006 -2 ft 24 kts 183°
2026-04-30 08:26 52.31624 4.77969 -1 ft 94 kts 183°
2026-04-30 08:27 52.30776 4.77890 -4 ft 148 kts 183°
2026-04-30 08:27 52.29666 4.77781 321 ft 163 kts 177°
2026-04-30 08:27 52.28494 4.77796 850 ft 171 kts 174°
2026-04-30 08:27 52.27354 4.78014 1479 ft 167 kts 149°
2026-04-30 08:28 52.26434 4.79260 1743 ft 183 kts 131°
2026-04-30 08:28 52.25719 4.81038 2095 ft 194 kts 104°
2026-04-30 08:28 52.25631 4.83253 2675 ft 197 kts 95°
2026-04-30 08:28 52.25576 4.85492 3343 ft 201 kts 95°
2026-04-30 08:29 52.25506 4.87916 3633 ft 224 kts 95°
2026-04-30 08:29 52.25432 4.90505 4194 ft 233 kts 95°
2026-04-30 08:29 52.25357 4.93168 4879 ft 237 kts 95°
2026-04-30 08:29 52.25282 4.95872 5587 ft 240 kts 94°
2026-04-30 08:30 52.25204 4.98612 6266 ft 244 kts 94°
2026-04-30 08:30 52.25125 5.01408 6925 ft 249 kts 94°
2026-04-30 08:30 52.25044 5.04250 7623 ft 251 kts 94°
2026-04-30 08:30 52.24962 5.07106 8360 ft 253 kts 94°
2026-04-30 08:31 52.24879 5.09991 9112 ft 256 kts 94°
2026-04-30 08:31 52.24795 5.12898 9903 ft 258 kts 93°
2026-04-30 08:31 52.24708 5.15836 10636 ft 261 kts 93°
2026-04-30 08:31 52.24617 5.18879 10876 ft 284 kts 93°
2026-04-30 08:32 52.24514 5.22259 11118 ft 304 kts 93°
2026-04-30 08:32 52.24164 5.25705 11633 ft 313 kts 109°
2026-04-30 08:32 52.23132 5.28864 12330 ft 319 kts 122°
2026-04-30 08:32 52.21850 5.31845 13026 ft 324 kts 123°
2026-04-30 08:33 52.20516 5.34842 13712 ft 329 kts 123°
2026-04-30 08:33 52.19178 5.37844 14398 ft 334 kts 123°
2026-04-30 08:33 52.17812 5.40934 15064 ft 338 kts 123°
2026-04-30 08:33 52.16435 5.44066 15750 ft 342 kts 123°
2026-04-30 08:34 52.15046 5.47244 16412 ft 347 kts 123°
2026-04-30 08:34 52.13640 5.50466 17068 ft 352 kts 123°
2026-04-30 08:34 52.12215 5.53725 17772 ft 355 kts 123°
2026-04-30 08:34 52.10777 5.57010 18445 ft 359 kts 123°
2026-04-30 08:35 52.09321 5.60334 19049 ft 363 kts 123°
2026-04-30 08:35 52.07845 5.63697 19630 ft 367 kts 123°
2026-04-30 08:35 52.06351 5.67093 20217 ft 371 kts 123°
2026-04-30 08:35 52.04748 5.70399 20798 ft 375 kts 128°
2026-04-30 08:36 52.03011 5.73608 21366 ft 380 kts 129°
2026-04-30 08:36 52.01246 5.76821 21933 ft 384 kts 129°
2026-04-30 08:36 51.99476 5.80089 22499 ft 387 kts 128°
2026-04-30 08:36 51.97700 5.83401 23030 ft 392 kts 128°
2026-04-30 08:37 51.95905 5.86756 23587 ft 395 kts 128°
2026-04-30 08:37 51.94091 5.90137 24080 ft 400 kts 128°
2026-04-30 08:37 51.92255 5.93553 24537 ft 403 kts 128°
2026-04-30 08:37 51.90409 5.96983 25058 ft 405 kts 128°
2026-04-30 08:38 51.88557 6.00420 25573 ft 406 kts 128°
2026-04-30 08:38 51.87323 6.02707 25887 ft 408 kts 128°
2026-04-30 08:38 51.85448 6.06179 26352 ft 411 kts 128°
2026-04-30 08:38 51.83553 6.09661 26821 ft 414 kts 128°
2026-04-30 08:39 51.81643 6.13154 27300 ft 416 kts 128°
2026-04-30 08:39 51.79721 6.16666 27762 ft 418 kts 128°
2026-04-30 08:39 51.77791 6.20189 28211 ft 420 kts 128°
2026-04-30 08:39 51.75848 6.23735 28659 ft 423 kts 128°
2026-04-30 08:40 51.73260 6.28459 29240 ft 426 kts 128°
2026-04-30 08:40 51.71935 6.30879 29529 ft 427 kts 128°
2026-04-30 08:40 51.69956 6.34487 29895 ft 431 kts 128°
2026-04-30 08:40 51.67966 6.38113 30264 ft 434 kts 128°
2026-04-30 08:41 51.65955 6.41770 30647 ft 436 kts 128°
2026-04-30 08:41 51.63941 6.45424 30995 ft 437 kts 128°
2026-04-30 08:41 51.61918 6.49090 31356 ft 439 kts 128°
2026-04-30 08:41 51.59889 6.52759 31760 ft 438 kts 128°
2026-04-30 08:42 51.57867 6.56410 32254 ft 435 kts 128°
2026-04-30 08:42 51.55861 6.60028 32758 ft 433 kts 128°
2026-04-30 08:42 51.53863 6.63629 33212 ft 431 kts 128°
2026-04-30 08:42 51.51871 6.67215 33619 ft 430 kts 128°
2026-04-30 08:43 51.49881 6.70794 34039 ft 429 kts 128°
2026-04-30 08:43 51.47900 6.74353 34483 ft 427 kts 128°
2026-04-30 08:43 51.45920 6.77906 34717 ft 429 kts 128°
2026-04-30 08:43 51.43924 6.81482 34931 ft 431 kts 128°
2026-04-30 08:44 51.41923 6.85051 35234 ft 430 kts 129°
2026-04-30 08:44 51.39743 6.88355 35565 ft 434 kts 137°
2026-04-30 08:44 51.37275 6.91069 35857 ft 437 kts 143°
2026-04-30 08:44 51.34656 6.93675 36165 ft 437 kts 144°
2026-04-30 08:45 51.32107 6.96175 36496 ft 436 kts 144°
2026-04-30 08:45 51.29523 6.98714 36754 ft 436 kts 144°
2026-04-30 08:45 51.26943 7.01264 36972 ft 437 kts 144°
2026-04-30 08:45 51.24361 7.03830 37205 ft 437 kts 143°
2026-04-30 08:46 51.21787 7.06397 37435 ft 438 kts 143°
2026-04-30 08:46 51.16593 7.11587 37425 ft 441 kts 143°
2026-04-30 08:47 51.11412 7.16751 37422 ft 439 kts 143°
2026-04-30 08:47 51.06237 7.21896 37431 ft 438 kts 143°
2026-04-30 08:48 51.01060 7.27028 37431 ft 439 kts 143°
2026-04-30 08:48 50.95879 7.32150 37427 ft 439 kts 144°
2026-04-30 08:49 50.90696 7.37261 37426 ft 439 kts 144°
2026-04-30 08:49 50.85506 7.42365 37430 ft 439 kts 144°
2026-04-30 08:50 50.80315 7.47458 37427 ft 439 kts 144°
2026-04-30 08:50 50.75118 7.52544 37446 ft 439 kts 143°
2026-04-30 08:51 50.69938 7.57665 37429 ft 439 kts 142°
2026-04-30 08:51 50.64840 7.62962 37426 ft 440 kts 142°
2026-04-30 08:52 50.59735 7.68290 37439 ft 440 kts 142°
2026-04-30 08:52 50.54611 7.73595 37433 ft 441 kts 142°
2026-04-30 08:53 50.49471 7.78884 37434 ft 442 kts 142°
2026-04-30 08:53 50.44319 7.84167 37442 ft 442 kts 142°
2026-04-30 08:54 50.39166 7.89439 37446 ft 443 kts 142°
2026-04-30 08:54 50.34038 7.94672 37444 ft 443 kts 142°
2026-04-30 08:55 50.28865 7.99937 37437 ft 443 kts 142°
2026-04-30 08:55 50.23691 8.05190 37427 ft 443 kts 142°
2026-04-30 08:56 50.18513 8.10436 37417 ft 444 kts 142°
2026-04-30 08:56 50.13318 8.15635 37404 ft 445 kts 145°
2026-04-30 08:57 50.07730 8.19906 37403 ft 448 kts 151°
2026-04-30 08:57 50.02043 8.23872 37425 ft 448 kts 151°
2026-04-30 08:58 49.96361 8.27867 37409 ft 448 kts 150°
2026-04-30 08:58 49.90705 8.31904 37429 ft 447 kts 150°
2026-04-30 08:59 49.85057 8.35952 37428 ft 447 kts 150°
2026-04-30 08:59 49.79405 8.39996 37414 ft 447 kts 150°
2026-04-30 09:00 49.73761 8.44023 37405 ft 447 kts 150°
2026-04-30 09:00 49.68112 8.48041 37403 ft 446 kts 150°
2026-04-30 09:01 49.62469 8.52044 37403 ft 446 kts 151°
2026-04-30 09:01 49.56832 8.56034 37397 ft 446 kts 151°
2026-04-30 09:02 49.48411 8.61974 37405 ft 445 kts 151°
2026-04-30 09:02 49.42774 8.65938 37402 ft 446 kts 151°
2026-04-30 09:03 49.37134 8.69894 37396 ft 446 kts 151°
2026-04-30 09:03 49.31488 8.73844 37386 ft 445 kts 151°
2026-04-30 09:04 49.25850 8.77778 37370 ft 445 kts 151°
2026-04-30 09:04 49.20205 8.81707 37353 ft 446 kts 151°
2026-04-30 09:05 49.14562 8.85626 37357 ft 446 kts 151°
2026-04-30 09:05 49.08905 8.89544 37328 ft 447 kts 151°
2026-04-30 09:06 49.03242 8.93456 37337 ft 447 kts 151°
2026-04-30 09:06 48.97562 8.97371 37324 ft 448 kts 151°
2026-04-30 09:07 48.91873 9.01281 37342 ft 449 kts 152°
2026-04-30 09:07 48.86167 9.05194 37334 ft 450 kts 152°
2026-04-30 09:08 48.80451 9.09103 37333 ft 451 kts 152°
2026-04-30 09:08 48.74764 9.12983 37346 ft 451 kts 152°
2026-04-30 09:09 48.69034 9.16882 37371 ft 452 kts 152°
2026-04-30 09:09 48.63294 9.20779 37357 ft 452 kts 152°
2026-04-30 09:10 48.57549 9.24669 37349 ft 453 kts 152°
2026-04-30 09:10 48.51797 9.28554 37330 ft 453 kts 152°
2026-04-30 09:11 48.46041 9.32433 37301 ft 453 kts 152°
2026-04-30 09:11 48.40285 9.36303 37316 ft 453 kts 152°
2026-04-30 09:12 48.34530 9.40162 37300 ft 453 kts 152°
2026-04-30 09:12 48.28774 9.44013 37305 ft 453 kts 152°
2026-04-30 09:13 48.23346 9.48621 37307 ft 445 kts 137°
2026-04-30 09:13 48.18596 9.54539 37313 ft 444 kts 136°
2026-04-30 09:14 48.13845 9.60489 37316 ft 446 kts 136°
2026-04-30 09:14 48.09054 9.66405 37311 ft 447 kts 136°
2026-04-30 09:15 48.04238 9.72298 37309 ft 448 kts 136°
2026-04-30 09:15 47.99434 9.78153 37306 ft 449 kts 137°
2026-04-30 09:16 47.94585 9.84050 37296 ft 451 kts 137°
2026-04-30 09:16 47.89718 9.89956 37302 ft 452 kts 137°
2026-04-30 09:17 47.84838 9.95863 37296 ft 452 kts 137°
2026-04-30 09:17 47.79944 10.01772 37278 ft 453 kts 137°
2026-04-30 09:18 47.75044 10.07675 37258 ft 454 kts 137°
2026-04-30 09:18 47.70130 10.13579 37299 ft 455 kts 137°
2026-04-30 09:19 47.65160 10.19538 37504 ft 461 kts 137°
2026-04-30 09:19 47.62666 10.22522 37762 ft 461 kts 137°
2026-04-30 09:19 47.60170 10.25505 38044 ft 460 kts 137°
2026-04-30 09:20 47.57679 10.28476 38287 ft 460 kts 138°
2026-04-30 09:20 47.55169 10.31413 38496 ft 461 kts 141°
2026-04-30 09:20 47.52521 10.34128 38666 ft 464 kts 144°
2026-04-30 09:20 47.49810 10.36730 38808 ft 465 kts 145°
2026-04-30 09:21 47.47081 10.39301 39006 ft 465 kts 146°
2026-04-30 09:21 47.44364 10.41873 39207 ft 464 kts 145°
2026-04-30 09:21 47.38928 10.47098 39241 ft 468 kts 144°
2026-04-30 09:22 47.33473 10.52388 39238 ft 469 kts 144°
2026-04-30 09:22 47.28057 10.57625 39227 ft 467 kts 144°
2026-04-30 09:23 47.22752 10.63090 39225 ft 464 kts 142°
2026-04-30 09:23 47.17533 10.68649 39256 ft 462 kts 142°
2026-04-30 09:24 47.12316 10.74151 39264 ft 461 kts 143°
2026-04-30 09:24 47.07087 10.79611 39274 ft 462 kts 144°
2026-04-30 09:25 47.01841 10.85063 39288 ft 463 kts 144°
2026-04-30 09:25 46.96565 10.90535 39292 ft 466 kts 144°
2026-04-30 09:26 46.91267 10.96019 39280 ft 468 kts 144°
2026-04-30 09:26 46.85935 11.01527 39264 ft 470 kts 144°
2026-04-30 09:27 46.80672 11.07213 39265 ft 471 kts 136°
2026-04-30 09:27 46.76164 11.14135 39255 ft 471 kts 131°
2026-04-30 09:28 46.71728 11.21185 39249 ft 472 kts 132°
2026-04-30 09:28 46.68005 11.27020 39261 ft 473 kts 132°
2026-04-30 09:29 46.62764 11.35138 39254 ft 473 kts 132°
2026-04-30 09:29 46.58250 11.42096 39274 ft 473 kts 133°
2026-04-30 09:30 46.53732 11.49046 39266 ft 472 kts 133°
2026-04-30 09:30 46.49953 11.54848 39270 ft 472 kts 133°
2026-04-30 09:31 46.45467 11.61719 39273 ft 471 kts 133°
2026-04-30 09:31 46.40955 11.68617 39265 ft 471 kts 133°
2026-04-30 09:32 46.36413 11.75460 39273 ft 472 kts 134°
2026-04-30 09:32 46.31776 11.82194 39290 ft 473 kts 134°
2026-04-30 09:33 46.27108 11.88930 39296 ft 475 kts 134°
2026-04-30 09:33 46.22423 11.95705 39277 ft 478 kts 134°
2026-04-30 09:34 46.17726 12.02498 39324 ft 480 kts 134°
2026-04-30 09:34 46.12994 12.09326 39300 ft 482 kts 134°
2026-04-30 09:35 46.08240 12.16170 39298 ft 484 kts 134°
2026-04-30 09:35 46.03460 12.23032 39323 ft 486 kts 134°
2026-04-30 09:36 45.98665 12.29897 39318 ft 486 kts 134°
2026-04-30 09:36 45.93876 12.36736 39334 ft 485 kts 134°
2026-04-30 09:37 45.89097 12.43541 39320 ft 483 kts 134°
2026-04-30 09:37 45.84362 12.50269 39318 ft 481 kts 134°
2026-04-30 09:38 45.79608 12.57006 39318 ft 480 kts 134°
2026-04-30 09:38 45.74862 12.63716 39320 ft 479 kts 134°
2026-04-30 09:39 45.70108 12.70419 39317 ft 480 kts 134°
2026-04-30 09:39 45.65335 12.77132 39313 ft 482 kts 134°
2026-04-30 09:40 45.60542 12.83856 39305 ft 483 kts 134°
2026-04-30 09:40 45.55734 12.90584 39312 ft 485 kts 134°
2026-04-30 09:41 45.50902 12.97330 39323 ft 487 kts 134°
2026-04-30 09:41 45.46048 13.04088 39310 ft 488 kts 134°
2026-04-30 09:42 45.41209 13.10809 39290 ft 489 kts 134°
2026-04-30 09:42 45.36338 13.17559 39294 ft 489 kts 134°
2026-04-30 09:43 45.31475 13.24283 39301 ft 488 kts 134°
2026-04-30 09:43 45.26890 13.31354 39306 ft 486 kts 129°
2026-04-30 09:44 45.22478 13.38599 39289 ft 484 kts 129°
2026-04-30 09:44 45.18061 13.45801 39291 ft 483 kts 130°
2026-04-30 09:45 45.13625 13.52938 39273 ft 482 kts 130°
2026-04-30 09:45 45.09189 13.60031 39282 ft 481 kts 131°
2026-04-30 09:46 45.04752 13.67108 39274 ft 480 kts 131°
2026-04-30 09:46 45.00319 13.74166 39272 ft 480 kts 131°
2026-04-30 09:47 44.95890 13.81202 39292 ft 480 kts 131°
2026-04-30 09:47 44.91447 13.88244 39289 ft 480 kts 131°
2026-04-30 09:48 44.86980 13.95259 39295 ft 481 kts 132°
2026-04-30 09:48 44.82427 14.02215 39072 ft 487 kts 133°
2026-04-30 09:49 44.80115 14.05729 38825 ft 489 kts 133°
2026-04-30 09:49 44.77808 14.09238 38508 ft 487 kts 133°
2026-04-30 09:49 44.75521 14.12719 38248 ft 483 kts 133°
2026-04-30 09:49 44.73242 14.16188 37983 ft 483 kts 133°
2026-04-30 09:50 44.70961 14.19659 37425 ft 484 kts 133°
2026-04-30 09:50 44.68673 14.23137 36788 ft 482 kts 133°
2026-04-30 09:50 44.66399 14.26591 36126 ft 481 kts 134°
2026-04-30 09:50 44.64137 14.30021 35652 ft 477 kts 134°
2026-04-30 09:51 44.61888 14.33427 35113 ft 474 kts 134°
2026-04-30 09:51 44.59655 14.36805 34577 ft 471 kts 134°
2026-04-30 09:51 44.57431 14.40165 34027 ft 469 kts 134°
2026-04-30 09:51 44.55248 14.43459 33450 ft 466 kts 134°
2026-04-30 09:52 44.53049 14.46768 32931 ft 462 kts 135°
2026-04-30 09:52 44.50738 14.49892 32215 ft 462 kts 141°
2026-04-30 09:52 44.48299 14.52804 31663 ft 459 kts 142°
2026-04-30 09:52 44.45844 14.55637 31120 ft 456 kts 142°
2026-04-30 09:53 44.43407 14.58455 30595 ft 453 kts 143°
2026-04-30 09:53 44.40998 14.61276 30065 ft 450 kts 142°
2026-04-30 09:53 44.38622 14.64094 29508 ft 446 kts 142°
2026-04-30 09:53 44.36271 14.66894 28999 ft 441 kts 142°
2026-04-30 09:54 44.33947 14.69660 28504 ft 437 kts 142°
2026-04-30 09:54 44.31645 14.72391 28036 ft 432 kts 141°
2026-04-30 09:54 44.29358 14.75095 27542 ft 428 kts 141°
2026-04-30 09:54 44.27093 14.77769 27061 ft 425 kts 141°
2026-04-30 09:55 44.24846 14.80420 26587 ft 422 kts 141°
2026-04-30 09:55 44.22613 14.83051 26116 ft 419 kts 141°
2026-04-30 09:55 44.20398 14.85660 25637 ft 416 kts 141°
2026-04-30 09:55 44.18198 14.88249 25181 ft 413 kts 141°
2026-04-30 09:56 44.16012 14.90819 24732 ft 410 kts 141°
2026-04-30 09:56 44.13838 14.93373 24268 ft 408 kts 141°
2026-04-30 09:56 44.11675 14.95911 23796 ft 406 kts 140°
2026-04-30 09:56 44.09519 14.98438 23267 ft 403 kts 141°
2026-04-30 09:57 44.07382 15.00943 22776 ft 400 kts 140°
2026-04-30 09:57 44.05262 15.03423 22299 ft 397 kts 140°
2026-04-30 09:57 44.03185 15.05852 21847 ft 393 kts 140°
2026-04-30 09:57 44.01101 15.08286 21403 ft 390 kts 140°
2026-04-30 09:58 43.99034 15.10699 20949 ft 387 kts 140°
2026-04-30 09:58 43.96958 15.13121 20492 ft 384 kts 140°
2026-04-30 09:58 43.94948 15.15461 20068 ft 381 kts 140°
2026-04-30 09:58 43.92931 15.17818 19690 ft 376 kts 140°
2026-04-30 09:59 43.89019 15.22500 18944 ft 369 kts 139°
2026-04-30 09:59 43.85006 15.26780 18285 ft 358 kts 149°
2026-04-30 10:00 43.80754 15.30169 17748 ft 349 kts 151°
2026-04-30 10:00 43.78647 15.31825 17476 ft 348 kts 150°
2026-04-30 10:01 43.74450 15.35165 16948 ft 349 kts 150°
2026-04-30 10:01 43.72346 15.36854 16674 ft 349 kts 149°
2026-04-30 10:01 43.70250 15.38543 16412 ft 348 kts 149°
2026-04-30 10:02 43.66081 15.41909 15832 ft 345 kts 149°
2026-04-30 10:02 43.64030 15.43565 15522 ft 337 kts 148°
2026-04-30 10:02 43.62017 15.45189 15032 ft 334 kts 148°
2026-04-30 10:02 43.60016 15.46803 14517 ft 332 kts 147°
2026-04-30 10:03 43.58026 15.48407 14028 ft 330 kts 147°
2026-04-30 10:03 43.56092 15.50032 13589 ft 321 kts 139°
2026-04-30 10:03 43.54721 15.52327 13242 ft 304 kts 114°
2026-04-30 10:03 43.53866 15.54944 12835 ft 296 kts 107°
2026-04-30 10:04 43.53112 15.57567 12373 ft 293 kts 106°
2026-04-30 10:04 43.52381 15.60168 11910 ft 290 kts 105°
2026-04-30 10:04 43.51656 15.62739 11452 ft 286 kts 106°
2026-04-30 10:04 43.50935 15.65270 11057 ft 279 kts 107°
2026-04-30 10:05 43.50228 15.67736 10588 ft 275 kts 107°
2026-04-30 10:05 43.49522 15.70183 9977 ft 274 kts 107°
2026-04-30 10:05 43.48816 15.72624 9244 ft 275 kts 108°
2026-04-30 10:05 43.48110 15.75059 8579 ft 273 kts 108°
2026-04-30 10:06 43.47408 15.77471 7953 ft 270 kts 108°
2026-04-30 10:06 43.46719 15.79830 7339 ft 268 kts 108°
2026-04-30 10:06 43.46028 15.82197 6728 ft 266 kts 108°
2026-04-30 10:06 43.45338 15.84556 6105 ft 264 kts 109°
2026-04-30 10:07 43.44669 15.86838 5817 ft 247 kts 109°
2026-04-30 10:07 43.44051 15.88940 5690 ft 228 kts 109°
2026-04-30 10:07 43.43476 15.90896 5593 ft 212 kts 108°
2026-04-30 10:07 43.42943 15.92712 5469 ft 198 kts 108°
2026-04-30 10:08 43.42446 15.94409 5359 ft 190 kts 107°
2026-04-30 10:08 43.41950 15.96105 5183 ft 191 kts 108°
2026-04-30 10:08 43.41456 15.97784 5002 ft 187 kts 109°
2026-04-30 10:08 43.40972 15.99427 4813 ft 184 kts 109°
2026-04-30 10:09 43.40492 16.01054 4636 ft 183 kts 107°
2026-04-30 10:09 43.40016 16.02674 4490 ft 181 kts 105°
2026-04-30 10:09 43.39918 16.04318 4337 ft 171 kts 65°
2026-04-30 10:09 43.40579 16.05684 4162 ft 176 kts 53°
2026-04-30 10:10 43.41301 16.07052 3925 ft 176 kts 52°
2026-04-30 10:10 43.42017 16.08374 3675 ft 170 kts 52°
2026-04-30 10:10 43.42726 16.09664 3469 ft 169 kts 52°
2026-04-30 10:10 43.43439 16.10955 3238 ft 170 kts 52°
2026-04-30 10:11 43.44159 16.12252 3015 ft 173 kts 51°
2026-04-30 10:11 43.44874 16.13542 2796 ft 165 kts 51°
2026-04-30 10:11 43.45556 16.14775 2560 ft 158 kts 51°
2026-04-30 10:11 43.46206 16.15946 2361 ft 148 kts 52°
2026-04-30 10:12 43.46827 16.17067 2138 ft 146 kts 52°
2026-04-30 10:12 43.47442 16.18176 1944 ft 147 kts 52°
2026-04-30 10:12 43.48058 16.19287 1730 ft 147 kts 51°
2026-04-30 10:12 43.48666 16.20381 1541 ft 138 kts 52°
2026-04-30 10:13 43.49227 16.21392 1361 ft 128 kts 53°
2026-04-30 10:13 43.49791 16.22410 1213 ft 141 kts 55°
2026-04-30 10:13 43.50379 16.23466 997 ft 132 kts 55°
2026-04-30 10:13 43.50906 16.24417 830 ft 121 kts 54°
2026-04-30 10:14 43.51410 16.25327 705 ft 119 kts 54°
2026-04-30 10:14 43.51923 16.26278 555 ft 128 kts 52°
2026-04-30 10:14 43.53023 16.28232 177 ft 126 kts 52°
2026-04-30 10:15 43.53532 16.29141 89 ft 108 kts 52°
2026-04-30 10:15 43.53882 16.29772 74 ft 52 kts 52°
2026-04-30 10:15 43.54013 16.30005 73 ft 19 kts 52°
2026-04-30 10:15 43.54051 16.30088 65 ft 5 kts 91°
2026-04-30 10:16 43.54027 16.30105 68 ft 5 kts 184°
2026-04-30 10:16 43.53982 16.30088 67 ft 9 kts 197°
2026-04-30 10:16 43.53914 16.30059 67 ft 8 kts 201°
2026-04-30 10:17 43.53834 16.29930 60 ft 13 kts 232°
2026-04-30 10:17 43.53715 16.29716 61 ft 14 kts 233°
2026-04-30 10:17 43.53664 16.29623 68 ft 9 kts 233°
2026-04-30 10:18 43.53634 16.29596 65 ft 3 kts 166°
2026-04-30 10:18 43.53623 16.29633 64 ft 5 kts 98°
2026-04-30 10:18 43.53621 16.29664 67 ft 0 kts 93°